Location: Stilling
(56.0622°N, 9.9882°E)
Time: 13:01:17
(UTC+00:00)

Cosmos 1862 Rocket - Pass Details

Date: 13 July 2020
Orbit: 605 x 633 km, 82.5° (Epoch: 07 August)

Event Time Altitude Azimuth Distance (km) Brightness Sun altitude
Rises 23:44:20 0° 347° (NNW) 2,925 8.6 -12.2°
Reaches altitude 10° 23:46:35 10° 347° (NNW) 2,017 7.5 -12.2°
Maximum altitude 23:51:04 84° 259° (WSW) 642 3.6 -12.1°
Enters shadow 23:54:30 17° 173° (S) 1,600 5.1 -12.1°
